{"data":{"norad_id":58660,"intl_designator":"2023-208A","name":"TIANMU-1 19","alt_names":[],"object_type":"PAYLOAD","status":"ACTIVE","operator":null,"country":"PRC","launch_date":"2023-12-27","launch_site_code":"JSC","launch_vehicle":null,"mission":null,"orbit_class":"UNKNOWN","rcs_meters":null,"size_class":null,"mass_kg":null,"dimensions":null,"purposes":["earth_obs"],"wikipedia_slug":null,"has_3d_model":false,"image_url":null,"decayed_at":null,"tle_current":{"epoch":"2026-05-25T03:44:16.874304Z","epoch_age_seconds":55472,"freshness":"FRESH","line1":"1 58660U 23208A   26145.15575086  .00007333  00000+0  24609-3 0  9994","line2":"2 58660  97.4476 261.3484 0005790  52.0608 308.1156 15.31164479133804","mean_motion":15.31164479,"eccentricity":0.000579,"inclination_deg":97.4476,"raan_deg":261.3484,"arg_perigee_deg":52.0608,"mean_anomaly_deg":308.1156,"bstar":0.00024609,"rev_number":13380,"period_min":94.0460688417,"perigee_km":468.37039636934,"apogee_km":476.30324505373,"semimajor_km":6850.4738207115,"source":"CELESTRAK","updated_at":"2026-05-25T13:38:12.258561Z"}}}